COSMOS 2251 DEB, 35580

Orbit data source: Space-Track

COSMOS 2251 DEB, 35580 is space debris in LEO originally from a launch on Wed, 16 Jun 1993 UTC launched from the Plesetsk Missile And Space Complex (PKMTR). The debris from Iridium 33, an American commercial communications satellite, has been tracked extensively since its accidental collision with the defunct Russian satellite Cosmos 2251 in 2009. This event, occurring at high speed in low Earth orbit (LEO), generated thousands of pieces of space debris, significantly increasing the risk of further collisions. The Iridium 33 debris cloud has impacted space traffic management and orbital debris mitigation strategies, making it a subject of ongoing study in space situational awareness.

Loading next visibility...
Identifier
35580, 1993-036ALX
Orbit
LEO
Country
Flag of CISCIS
Related business
Manufacturer
Unknown
Mission
Spacecraft
Bus & Motor
Unknown
Mass
Unknown
Launch date (UTC)
1993-06-16 (33 years ago)
Launch vehicle
Unknown
Launch site
Plesetsk Missile And Space Complex (PKMTR)
Object type
Payload
Rocket body
Debris
Shape & HBR
Unknown shape, 0.1 m
Radar Cross Section
Small (<0.1 m²)

Expand to show TLE details & history
Last TLE update: 3 days ago

TLE from 3 days ago
0 COSMOS 2251 DEB
1 35580U 93036ALX 26172.83261999  .00001184  00000-0  79111-3 0  9993
2 35580  73.9012 213.5086 0279799 182.8469 177.1081 13.84737600649015
Epoch: 2026-06-21T19:58Z
TLE epoch observation values (Epoch: 2026-06-21T19:58:58.367Z)
Latitude
0.00001°
Longitude
3.73818°
Altitude
1,154.42 km
Speed
7.174 km/s
True Right ascension
14h 14m 02s
True Declination
0° 00' 00"
Sunlit
Object was in daylight at epoch
Visualization orbit readout
Latitude
Unknown
Longitude
Unknown
Altitude
Unknown
Speed
Unknown
Apparent Right ascension
Unknown
Apparent Declination
Unknown
Sunlit
N/A
Visualization observer readout
Local Sidereal Time
17:54:12
Azimuth
Unknown
Elevation
Unknown
Doppler factor
Unknown
Orbital elements
Apogee altitude
1,149.716 km
Perigee altitude
739.925 km
Semi-major axis
7,322.958 km
Eccentricity
0.02798
Inclination
73.9012°
RAAN
213.5086°
Arg. of periapsis
182.8469°
True anomaly
177.26439°
Mean anomaly
177.1081°
Eccentric anomaly
177.18678°
Mean motion
3.46349 °/min
Orbital period
103.94 mins
BSTAR
0.00079111

Documentation

Showing up to 5 results
|